H1 CPF 2 NER 2025 10 26 9 299 01 glonass141 H2 1908801 9141 44850 2025 10 26 0 0 0 2025 10 29 23 45 0 900 1 1 0 0 0 1 H9 10 0 60974 0.00000 0 -10995080.751 3487093.576 22772494.297 10 0 60974 900.00000 0 -12977214.891 1573172.766 21923177.142 10 0 60974 1800.00000 0 -14999162.816 -101346.222 20648932.592 10 0 60974 2700.00000 0 -16997073.715 -1510131.161 18974309.115 10 0 60974 3600.00000 0 -18904780.619 -2639387.531 16931625.350 10 0 60974 4500.00000 0 -20656471.720 -3488199.783 14560359.769 10 0 60974 5400.00000 0 -22189369.801 -4068328.451 11906400.274 10 0 60974 6300.00000 0 -23446308.236 -4403471.365 9021166.808 10 0 60974 7200.00000 0 -24378095.495 -4528019.662 5960622.771 10 0 60974 8100.00000 0 -24945568.372 -4485360.665 2784193.580 10 0 60974 9000.00000 0 -25121246.532 -4325799.098 -446387.070 10 0 60974 9900.00000 0 -24890517.320 -4104184.671 -3668280.689 10 0 60974 10800.00000 0 -24252299.398 -3877346.905 -6818773.326 10 0 60974 11700.00000 0 -23219155.633 -3701446.789 -9836505.938 10 0 60974 12600.00000 0 -21816849.148 -3629358.727 -12662680.637 10 0 60974 13500.00000 0 -20083360.128 -3708195.259 -15242218.063 10 0 60974 14400.00000 0 -18067404.109 -3977081.117 -17524842.071 10 0 60974 15300.00000 0 -15826513.809 -4465272.570 -19466069.453 10 0 60974 16200.00000 0 -13424765.157 -5190703.253 -21028084.530 10 0 60974 17100.00000 0 -10930243.283 -6159019.358 -22180481.017 10 0 60974 18000.00000 0 -8412355.136 -7363146.063 -22900856.374 10 0 60974 18900.00000 0 -5939101.682 -8783404.350 -23175247.126 10 0 60974 19800.00000 0 -3574424.019 -10388173.852 -22998396.907 10 0 60974 20700.00000 0 -1375734.315 -12135074.106 -22373852.445 10 0 60974 21600.00000 0 608265.676 -13972614.619 -21313886.187 10 0 60974 22500.00000 0 2339388.250 -15842244.349 -19839247.669 10 0 60974 23400.00000 0 3791311.425 -17680714.318 -17978749.139 10 0 60974 24300.00000 0 4950423.832 -19422653.984 -15768694.136 10 0 60974 25200.00000 0 5816129.509 -21003253.058 -13252160.753 10 0 60974 26100.00000 0 6400602.069 -22360936.134 -10478154.192 10 0 60974 27000.00000 0 6728000.942 -23439917.933 -7500645.667 10 0 60974 27900.00000 0 6833184.986 -24192532.162 -4377516.904 10 0 60974 28800.00000 0 6759979.727 -24581236.666 -1169431.324 10 0 60974 29700.00000 0 6559073.130 -24580211.327 2061345.755 10 0 60974 30600.00000 0 6285630.078 -24176482.435 5252154.679 10 0 60974 31500.00000 0 5996727.231 -23370527.195 8341153.206 10 0 60974 32400.00000 0 5748717.079 -22176333.885 11268509.045 10 0 60974 33300.00000 0 5594632.520 -20620915.838 13977550.504 10 0 60974 34200.00000 0 5581741.204 -18743300.095 16415853.537 10 0 60974 35100.00000 0 5749352.245 -16593033.168 18536245.101 10 0 60974 36000.00000 0 6126967.110 -14228266.048 20297704.514 10 0 60974 36900.00000 0 6732851.990 -11713497.651 21666146.548 10 0 60974 37800.00000 0 7573091.398 -9117069.614 22615072.308 10 0 60974 38700.00000 0 8641162.845 -6508515.187 23126076.402 10 0 60974 39600.00000 0 9918051.047 -3955870.791 23189201.297 10 0 60974 40500.00000 0 11372897.911 -1523060.124 22803132.503 10 0 60974 41400.00000 0 12964162.660 732542.290 21975230.733 10 0 60974 42300.00000 0 14641245.387 2762268.412 20721399.960 10 0 60974 43200.00000 0 16346508.134 4527946.470 19065793.020 10 0 60974 44100.00000 0 18017610.984 6003249.619 17040359.178 10 0 60974 45000.00000 0 19590067.106 7174547.777 14684240.970 10 0 60974 45900.00000 0 20999911.150 8041227.241 12043030.398 10 0 60974 46800.00000 0 22186369.931 8615464.593 9167897.443 10 0 60974 47700.00000 0 23094423.523 8921464.099 6114606.558 10 0 60974 48600.00000 0 23677148.737 8994190.369 2942439.339 10 0 60974 49500.00000 0 23897745.449 8877649.457 -286956.137 10 0 60974 50400.00000 0 23731159.020 8622790.990 -3510766.877 10 0 60974 51300.00000 0 23165228.786 8285120.311 -6666243.579 10 0 60974 52200.00000 0 22201312.400 7922122.421 -9691931.522 10 0 60974 53100.00000 0 20854358.017 7590607.811 -12528878.577 10 0 60974 54000.00000 0 19152419.797 7344093.940 -15121795.575 10 0 60974 54900.00000 0 17135635.996 7230334.792 -17420145.146 10 0 60974 55800.00000 0 14854711.915 7289104.663 -19379136.666 10 0 60974 56700.00000 0 12368971.088 7550331.455 -20960607.015 10 0 60974 57600.00000 0 9744056.474 8032659.732 -22133769.415 10 0 60974 58500.00000 0 7049378.189 8742505.296 -22875815.383 10 0 60974 59400.00000 0 4355414.895 9673641.939 -23172358.127 10 0 60974 60300.00000 0 1730981.879 10807338.263 -23017708.963 10 0 60974 61200.00000 0 -759419.978 12113038.921 -22414981.814 10 0 60974 62100.00000 0 -3058063.942 13549561.558 -21376024.301 10 0 60974 63000.00000 0 -5116163.837 15066758.799 -19921177.415 10 0 60974 63900.00000 0 -6895657.715 16607575.019 -18078869.082 10 0 60974 64800.00000 0 -8370535.746 18110410.982 -15885050.198 10 0 60974 65700.00000 0 -9527658.668 19511696.570 -13382484.706 10 0 60974 66600.00000 0 -10367034.654 20748563.070 -10619908.205 10 0 60974 67500.00000 0 -10901545.335 21761502.540 -7651071.989 10 0 60974 68400.00000 0 -11156134.852 22496902.384 -4533691.724 10 0 60974 69300.00000 0 -11166498.324 22909348.761 -1328321.700 10 0 60974 70200.00000 0 -10977327.000 22963602.344 1902823.007 10 0 60974 71100.00000 0 -10640185.757 22636163.918 5097073.301 10 0 60974 72000.00000 0 -10211113.717 21916364.668 8192518.178 10 0 60974 72900.00000 0 -9748050.006 20806936.036 11129198.779 10 0 60974 73800.00000 0 -9308193.534 19324035.814 13850261.619 10 0 60974 74700.00000 0 -8945408.026 17496729.767 16303049.269 10 0 60974 75600.00000 0 -8707781.181 15365950.567 18440108.275 10 0 60974 76500.00000 0 -8635440.089 12982977.229 20220095.937 10 0 60974 77400.00000 0 -8758714.043 10407497.822 21608569.546 10 0 60974 78300.00000 0 -9096721.399 7705335.025 22578644.057 10 0 60974 79200.00000 0 -9656439.429 4945927.667 23111506.521 10 0 60974 80100.00000 0 -10432296.289 2199671.188 23196778.113 10 0 60974 81000.00000 0 -11406302.688 -464774.425 22832717.211 10 0 60974 81900.00000 0 -12548718.780 -2983099.405 22026259.592 10 0 60974 82800.00000 0 -13819229.732 -5297774.811 20792894.502 10 0 60974 83700.00000 0 -15168582.450 -7360199.532 19156378.154 10 0 60974 84600.00000 0 -16540616.704 -9132475.526 17148288.899 10 0 60974 85500.00000 0 -17874607.275 -10588738.080 14807431.267 10 0 60975 0.00000 0 -19107820.222 -11715985.854 12179099.080 10 0 60975 900.00000 0 -20178177.621 -12514376.537 9314208.964 10 0 60975 1800.00000 0 -21026917.598 -12996974.069 6268323.411 10 0 60975 2700.00000 0 -21601139.779 -13188959.666 3100576.745 10 0 60975 3600.00000 0 -21856126.524 -13126337.985 -127472.171 10 0 60975 4500.00000 0 -21757341.453 -12854193.460 -3353039.500 10 0 60975 5400.00000 0 -21282019.228 -12424570.439 -6513344.246 10 0 60975 6300.00000 0 -20420277.584 -11894067.214 -9546839.602 10 0 60975 7200.00000 0 -19175702.787 -11321246.497 -12394422.668 10 0 60975 8100.00000 0 -17565382.037 -10763973.092 -15000597.718 10 0 60975 9000.00000 0 -15619379.923 -10276792.741 -17314569.109 10 0 60975 9900.00000 0 -13379679.794 -9908464.497 -19291241.345 10 0 60975 10800.00000 0 -10898633.810 -9699752.377 -20892105.903 10 0 60975 11700.00000 0 -8236986.287 -9681570.844 -22085996.942 10 0 60975 12600.00000 0 -5461553.115 -9873563.449 -22849700.818 10 0 60975 13500.00000 0 -2642654.447 -10283175.229 -23168407.533 10 0 60975 14400.00000 0 148591.918 -10905258.343 -23035995.565 10 0 60975 15300.00000 0 2843003.305 -11722227.525 -22455144.930 10 0 60975 16200.00000 0 5375977.216 -12704758.546 -21437276.843 10 0 60975 17100.00000 0 7689938.734 -13812999.770 -20002321.761 10 0 60975 18000.00000 0 9736488.916 -14998245.174 -18178320.973 10 0 60975 18900.00000 0 11478165.700 -16204997.703 -16000870.144 10 0 60975 19800.00000 0 12889745.318 -17373335.442 -13512416.269 10 0 60975 20700.00000 0 13959031.672 -18441480.372 -10761422.341 10 0 60975 21600.00000 0 14687102.781 -19348461.093 -7801416.610 10 0 60975 22500.00000 0 15088006.268 -20036757.101 -4689945.450 10 0 60975 23400.00000 0 15187918.950 -20454813.194 -1487450.769 10 0 60975 24300.00000 0 15023808.082 -20559318.222 1743905.804 10 0 60975 25200.00000 0 14641652.445 -20317152.605 4941448.809 10 0 60975 26100.00000 0 14094299.783 -19706923.069 8043201.352 10 0 60975 27000.00000 0 13439051.896 -18720020.620 10989080.587 10 0 60975 27900.00000 0 12735079.727 -17361157.719 13722053.492 10 0 60975 28800.00000 0 12040777.419 -15648362.456 16189231.130 10 0 60975 29700.00000 0 11411166.409 -13612430.013 18342881.125 10 0 60975 30600.00000 0 10895458.084 -11295854.008 20141339.832 10 0 60975 31500.00000 0 10534876.645 -8751281.688 21549807.743 10 0 60975 32400.00000 0 10360832.706 -6039556.208 22541013.952 10 0 60975 33300.00000 0 10393523.570 -3227425.984 23095737.885 10 0 60975 34200.00000 0 10641018.419 -385014.554 23203179.017 10 0 60975 35100.00000 0 11098866.745 2416845.966 22861167.899 10 0 60975 36000.00000 0 11750246.816 5109309.177 22076214.419 10 0 60975 36900.00000 0 12566648.864 7628126.518 20863391.938 10 0 60975 37800.00000 0 13509065.578 9916070.422 19246058.698 10 0 60975 38700.00000 0 14529641.514 11925069.126 17255420.641 10 0 60975 39600.00000 0 15573713.752 13617965.189 14929942.651 10 0 60975 40500.00000 0 16582159.561 14969824.872 12314618.090 10 0 60975 41400.00000 0 17493953.492 15968743.783 9460109.237 10 0 60975 42300.00000 0 18248826.954 16616114.812 6421774.087 10 0 60975 43200.00000 0 18789918.314 16926346.706 3258597.443 10 0 60975 44100.00000 0 19066301.262 16926044.666 32046.577 10 0 60975 45000.00000 0 19035283.654 16652687.103 -3195126.287 10 0 60975 45900.00000 0 18664378.212 16152854.246 -6360110.944 10 0 60975 46800.00000 0 17932859.988 15480083.587 -9401270.941 10 0 60975 47700.00000 0 16832842.775 14692443.325 -12259354.920 10 0 60975 48600.00000 0 15369827.038 13849927.274 -14878662.763 10 0 60975 49500.00000 0 13562694.412 13011782.492 -17208142.520 10 0 60975 50400.00000 0 11443147.457 12233883.893 -19202395.588 10 0 60975 51300.00000 0 9054617.089 11566268.031 -20822569.617 10 0 60975 52200.00000 0 6450682.760 11050931.385 -22037121.109 10 0 60975 53100.00000 0 3693071.215 10719986.954 -22822432.483 10 0 60975 54000.00000 0 849317.470 10594257.508 -23163271.573 10 0 60975 54900.00000 0 -2009814.233 10682364.991 -23053084.808 10 0 60975 55800.00000 0 -4813041.693 10980354.307 -22494118.790 10 0 60975 56700.00000 0 -7491295.165 11471866.834 -21497368.460 10 0 60975 57600.00000 0 -9980353.270 12128855.624 -20082353.457 10 0 60975 58500.00000 0 -12223274.973 12912811.267 -18276727.722 10 0 60975 59400.00000 0 -14172527.013 13776445.743 -16115730.566 10 0 60975 60300.00000 0 -15791719.224 14665762.378 -13641490.520 10 0 60975 61200.00000 0 -17056876.761 15522423.701 -10902196.155 10 0 60975 62100.00000 0 -17957197.889 16286316.645 -7951150.589 10 0 60975 63000.00000 0 -18495267.667 16898206.334 -4845728.620 10 0 60975 63900.00000 0 -18686720.751 17302366.208 -1646257.323 10 0 60975 64800.00000 0 -18559369.593 17449073.429 1585157.698 10 0 60975 65700.00000 0 -18151836.689 17296864.492 4785837.307 10 0 60975 66600.00000 0 -17511750.081 16814456.221 7893741.499 10 0 60975 67500.00000 0 -16693579.337 15982251.672 10848666.288 10 0 60975 68400.00000 0 -15756203.886 14793367.928 13593401.988 10 0 60975 69300.00000 0 -14760316.343 13254142.904 16074831.005 10 0 60975 70200.00000 0 -13765769.831 11384099.917 18244944.791 10 0 60975 71100.00000 0 -12828980.221 9215371.245 20061761.364 10 0 60975 72000.00000 0 -12000491.455 6791604.091 21490126.790 10 0 60975 72900.00000 0 -11322805.078 4166393.513 22502386.380 10 0 60975 73800.00000 0 -10828563.950 1401306.108 23078913.669 10 0 60975 74700.00000 0 -10539165.340 -1436425.149 23208487.770 10 0 60975 75600.00000 0 -10463860.973 -4276441.174 22888512.302 10 0 60975 76500.00000 0 -10599381.537 -7047928.818 22125071.691 10 0 60975 77400.00000 0 -10930101.677 -9682315.792 20932823.346 10 0 60975 78300.00000 0 -11428739.274 -12115878.406 19334726.973 10 0 60975 79200.00000 0 -12057560.747 -14292155.309 17361615.032 10 0 60975 80100.00000 0 -12770043.029 -16164067.816 15051611.219 10 0 60975 81000.00000 0 -13512923.666 -17695659.103 12449406.695 10 0 60975 81900.00000 0 -14228553.904 -18863379.842 9605406.546 10 0 60975 82800.00000 0 -14857456.418 -19656866.244 6574761.791 10 0 60975 83700.00000 0 -15340980.124 -20079177.403 3416304.753 10 0 60975 84600.00000 0 -15623939.743 -20146481.397 191407.942 10 0 60975 85500.00000 0 -15657127.770 -19887202.721 -3037211.357 10 0 60976 0.00000 0 -15399591.357 -19340666.661 -6206716.890 10 0 60976 900.00000 0 -14820575.892 -18555297.301 -9255386.623 10 0 60976 1800.00000 0 -13901051.504 -17586446.285 -12123823.964 10 0 60976 2700.00000 0 -12634755.445 -16493943.591 -14756127.818 10 0 60976 3600.00000 0 -11028704.601 -15339475.350 -17100993.173 10 0 60976 4500.00000 0 -9103154.600 -14183900.253 -19112721.276 10 0 60976 5400.00000 0 -6891005.785 -13084619.032 -20752118.496 10 0 60976 6300.00000 0 -4436679.873 -12093109.008 -21987265.719 10 0 60976 7200.00000 0 -1794513.692 -11252728.565 -22794142.891 10 0 60976 8100.00000 0 973263.121 -10596884.560 -23157096.522 10 0 60976 9000.00000 0 3798882.073 -10147640.007 -23069141.239 10 0 60976 9900.00000 0 6611623.069 -9914820.419 -22532089.918 10 0 60976 10800.00000 0 9340526.988 -9895655.760 -21556510.402 10 0 60976 11700.00000 0 11917120.527 -10074972.160 -20161510.261 10 0 60976 12600.00000 0 14278039.899 -10425924.100 -18374354.432 10 0 60976 13500.00000 0 16367444.494 -10911234.946 -16229923.842 10 0 60976 14400.00000 0 18139120.623 -11484892.182 -13770026.180 10 0 60976 15300.00000 0 19558188.626 -12094224.605 -11042572.857 10 0 60976 16200.00000 0 20602343.506 -12682272.728 -8100638.800 10 0 60976 17100.00000 0 21262578.898 -13190351.438 -5001423.892 10 0 60976 18000.00000 0 21543365.986 -13560696.085 -1805136.842 10 0 60976 18900.00000 0 21462281.862 -13739079.894 1426176.409 10 0 60976 19800.00000 0 21049104.870 -13677292.102 4629836.659 10 0 60976 20700.00000 0 20344416.670 -13335372.351 7743744.248 10 0 60976 21600.00000 0 19397771.198 -12683507.385 10707577.244 10 0 60976 22500.00000 0 18265508.453 -11703510.462 13463952.130 10 0 60976 23400.00000 0 17008305.500 -10389821.503 15959525.068 10 0 60976 24300.00000 0 15688567.540 -8749986.054 18146013.309 10 0 60976 25200.00000 0 14367768.083 -6804592.755 19981118.030 10 0 60976 26100.00000 0 13103848.919 -4586671.387 21429331.925 10 0 60976 27000.00000 0 11948787.725 -2140575.625 22462617.144 10 0 60976 27900.00000 0 10946433.918 479604.295 23060941.528 10 0 60976 28800.00000 0 10130702.145 3212034.697 23212663.637 10 0 60976 29700.00000 0 9524197.989 5989456.498 22914759.599 10 0 60976 30600.00000 0 9137332.714 8741734.062 22172887.482 10 0 60976 31500.00000 0 8967963.845 11398531.114 21001287.540 10 0 60976 32400.00000 0 9001576.774 13892004.588 19422519.472 10 0 60976 33300.00000 0 9212000.367 16159406.093 17467040.545 10 0 60976 34200.00000 0 9562627.356 18145483.991 15172631.354 10 0 60976 35100.00000 0 10008089.281 19804586.744 12583678.759 10 0 60976 36000.00000 0 10496316.462 21102380.021 9750328.383 10 0 60976 36900.00000 0 10970896.980 22017105.518 6727521.844 10 0 60976 37800.00000 0 11373635.595 22540328.226 3573936.427 10 0 60976 38700.00000 0 11647204.408 22677140.028 350847.239 10 0 60976 39600.00000 0 11737772.664 22445810.220 -2879066.066 10 0 60976 40500.00000 0 11597503.315 21876897.010 -6052944.389 10 0 60976 41400.00000 0 11186809.125 21011856.926 -9108981.522 10 0 60976 42300.00000 0 10476270.976 19901210.689 -11987638.580 10 0 60976 43200.00000 0 9448135.149 18602343.137 -14632815.656 10 0 60976 44100.00000 0 8097324.189 17177030.601 -16992956.592 10 0 60976 45000.00000 0 6431916.720 15688800.891 -19022064.169 10 0 60976 45900.00000 0 4473074.241 14200238.143 -20680604.936 10 0 60976 46800.00000 0 2254416.575 12770347.082 -21936285.415 10 0 60976 47700.00000 0 -179128.821 11452088.506 -22764684.130 10 0 60976 48600.00000 0 -2772956.089 10290190.235 -23149727.105 10 0 60976 49500.00000 0 -5464820.937 9319325.747 -23083997.744 10 0 60976 50400.00000 0 -8187206.104 8562736.843 -22568875.472 10 0 60976 51300.00000 0 -10869913.595 8031357.503 -21614500.952 10 0 60976 52200.00000 0 -13442775.427 7723474.734 -20239569.201 10 0 60976 53100.00000 0 -15838369.877 7624939.241 -18470955.268 10 0 60976 54000.00000 0 -17994630.130 7709915.508 -16343180.438 10 0 60976 54900.00000 0 -19857236.969 7942137.972 -13897729.967 10 0 60976 55800.00000 0 -21381696.343 8276618.750 -11182236.262 10 0 60976 56700.00000 0 -22535016.062 8661733.344 -8249544.021 10 0 60976 57600.00000 0 -23296912.875 9041594.996 -5156676.038 10 0 60976 58500.00000 0 -23660500.935 9358616.427 -1963720.361 10 0 60976 59400.00000 0 -23632434.565 9556150.011 1267339.117 10 0 60976 60300.00000 0 -23232501.078 9581094.503 4473825.612 10 0 60976 61200.00000 0 -22492682.438 9386358.069 7593582.397 10 0 60976 62100.00000 0 -21455726.555 8933073.822 10566172.263 10 0 60976 63000.00000 0 -20173289.318 8192474.674 13334040.590 10 0 60976 63900.00000 0 -18703725.974 7147348.792 15843620.028 10 0 60976 64800.00000 0 -17109624.695 5793014.627 18046356.275 10 0 60976 65700.00000 0 -15455185.343 4137774.496 19899636.176 10 0 60976 66600.00000 0 -13803552.484 2202827.310 21367601.320 10 0 60976 67500.00000 0 -12214213.123 21643.279 22421832.649 10 0 60976 68400.00000 0 -10740566.598 -2361174.547 23041893.917 10 0 60976 69300.00000 0 -9427766.815 -4891496.076 23215724.333 10 0 60976 70200.00000 0 -8310925.615 -7507672.428 22939873.326 10 0 60976 71100.00000 0 -7413751.261 -10142865.315 22219572.971 10 0 60976 72000.00000 0 -6747678.180 -12727602.869 21068646.316 10 0 60976 72900.00000 0 -6311524.032 -15192457.804 19509252.571 10 0 60976 73800.00000 0 -6091688.504 -17470738.344 17571472.929 10 0 60976 74700.00000 0 -6062885.931 -19501081.275 15292743.597 10 0 60976 75600.00000 0 -6189381.633 -21229839.993 12717145.481 10 0 60976 76500.00000 0 -6426680.754 -22613168.206 9894562.757 10 0 60976 77400.00000 0 -6723599.140 -23618712.017 6879725.380 10 0 60976 78300.00000 0 -7024629.370 -24226838.954 3731153.090 10 0 60976 79200.00000 0 -7272502.073 -24431351.454 510020.884 10 0 60976 80100.00000 0 -7410833.829 -24239653.827 -2721032.083 10 0 60976 81000.00000 0 -7386748.727 -23672364.634 -5899126.611 10 0 60976 81900.00000 0 -7153361.236 -22762389.996 -8962376.030 10 0 60976 82800.00000 0 -6672013.538 -21553496.367 -11851102.092 10 0 60976 83700.00000 0 -5914170.654 -20098442.751 -14509009.303 10 0 60976 84600.00000 0 -4862891.115 -18456751.350 -16884293.523 10 0 60976 85500.00000 0 -3513809.003 -16692211.089 -18930662.040 10 0 60977 0.00000 0 -1875584.249 -14870220.113 -20608244.140 10 0 60977 900.00000 0 30200.341 -13055078.912 -21884374.580 10 0 60977 1800.00000 0 2169689.950 -11307351.145 -22734232.124 10 0 60977 2700.00000 0 4497932.973 -9681400.355 -23141323.630 10 0 60977 3600.00000 0 6960529.787 -8223208.648 -23097802.087 10 0 60977 4500.00000 0 9495687.069 -6968567.761 -22604613.779 10 0 60977 5400.00000 0 12036591.702 -5941717.905 -21671472.043 10 0 60977 6300.00000 0 14514005.028 -5154490.471 -20316658.774 10 0 60977 7200.00000 0 16858969.006 -4605989.081 -18566658.155 10 0 60977 8100.00000 0 19005511.284 -4282820.676 -16455630.447 10 0 60977 9000.00000 0 20893236.434 -4159864.947 -14024736.666 10 0 60977 9900.00000 0 22469695.437 -4201547.771 -11321327.982 10 0 60977 10800.00000 0 23692435.081 -4363563.093 -8398016.196 10 0 60977 11700.00000 0 24530642.497 -4594968.906 -5311643.950 10 0 60977 12600.00000 0 24966317.174 -4840567.460 -2122175.258 10 0 60977 13500.00000 0 24994922.758 -5043468.049 1108471.625 10 0 60977 14400.00000 0 24625492.859 -5147723.413 4317626.018 10 0 60977 15300.00000 0 23880187.861 -5100927.988 7443077.755 10 0 60977 16200.00000 0 22793322.753 -4856668.225 10424277.811 10 0 60977 17100.00000 0 21409907.792 -4376721.733 13203503.648 10 0 60977 18000.00000 0 19783763.947 -3632912.803 15726967.237 10 0 60977 18900.00000 0 17975292.327 -2608546.458 17945845.180 10 0 60977 19800.00000 0 16048990.782 -1299360.830 19817212.020 10 0 60977 20700.00000 0 14070820.873 286042.277 21304859.867 10 0 60977 21600.00000 0 12105534.159 2126307.226 22379989.665 10 0 60977 22500.00000 0 10214068.064 4187971.217 23021761.870 10 0 60977 23400.00000 0 8451118.443 6426622.181 23217696.716 10 0 60977 24300.00000 0 6862988.562 8788521.431 22963916.879 10 0 60977 25200.00000 0 5485802.794 11212625.584 22265227.969 10 0 60977 26100.00000 0 4344158.450 13632925.759 21135034.929 10 0 60977 27000.00000 0 3450271.241 15981008.848 19595095.205 10 0 60977 27900.00000 0 2803649.725 18188736.221 17675112.278 10 0 60977 28800.00000 0 2391312.382 20190929.766 15412176.016 10 0 60977 29700.00000 0 2188538.513 21927954.358 12850059.151 10 0 60977 30600.00000 0 2160121.938 23348089.427 10038381.967 10 0 60977 31500.00000 0 2262075.266 24409590.340 7031660.105 10 0 60977 32400.00000 0 2443713.346 25082352.716 3888252.965 10 0 60977 33300.00000 0 2650028.064 25349108.874 669232.523 10 0 60977 34200.00000 0 2824253.879 25206104.933 -2562805.515 10 0 60977 35100.00000 0 2910514.866 24663228.821 -5744964.769 10 0 60977 36000.00000 0 2856440.063 23743582.625 -8815280.913 10 0 60977 36900.00000 0 2615634.842 22482516.379 -11713938.965 10 0 60977 37800.00000 0 2149901.845 20926163.401 -14384450.236 10 0 60977 38700.00000 0 1431115.507 19129538.678 -16774764.722 10 0 60977 39600.00000 0 442668.897 17154280.541 -18838296.069 10 0 60977 40500.00000 0 -819570.107 15066131.116 -20534838.142 10 0 60977 41400.00000 0 -2346835.321 12932262.085 -21831354.658 10 0 60977 42300.00000 0 -4117590.612 10818558.792 -22702626.039 10 0 60977 43200.00000 0 -6098205.732 8786977.174 -23131740.789 10 0 60977 44100.00000 0 -8244151.903 6893084.644 -23110422.010 10 0 60977 45000.00000 0 -10501667.380 5183887.913 -22639183.034 10 0 60977 45900.00000 0 -12809823.301 3696038.220 -21727309.691 10 0 60977 46800.00000 0 -15102903.328 2454488.171 -20392670.163 10 0 60977 47700.00000 0 -17312997.360 1471655.094 -18661356.782 10 0 60977 48600.00000 0 -19372700.731 747124.178 -16567167.414 10 0 60977 49500.00000 0 -21217805.966 267901.817 -14150937.159 10 0 60977 50400.00000 0 -22789874.636 9206.349 -11459734.009 10 0 60977 51300.00000 0 -24038581.991 -64239.299 -8545934.748 10 0 60977 52200.00000 0 -24923736.861 3530.442 -5466199.604 10 0 60977 53100.00000 0 -25416892.969 161832.150 -2280366.187 10 0 60977 54000.00000 0 -25502485.222 355721.607 949715.360 10 0 60977 54900.00000 0 -25178444.536 528559.902 4161383.017 10 0 60977 55800.00000 0 -24456266.630 624648.353 7292375.840 10 0 60977 56700.00000 0 -23360533.153 591820.683 10282035.721 10 0 60977 57600.00000 0 -21927906.191 383883.030 13072474.967 10 0 60977 58500.00000 0 -20205639.024 -37200.872 15609687.613 10 0 60977 59400.00000 0 -18249665.800 -699471.090 17844583.788 10 0 60977 60300.00000 0 -16122349.880 -1619556.520 19733928.167 10 0 60977 61200.00000 0 -13889984.363 -2801742.955 21241165.521 10 0 60977 62100.00000 0 -11620148.069 -4237563.455 22337118.596 10 0 60977 63000.00000 0 -9379025.865 -5905928.906 23000545.946 10 0 60977 63900.00000 0 -7228803.374 -7773794.320 23218549.808 10 0 60977 64800.00000 0 -5225242.909 -9797334.640 22986826.669 10 0 60977 65700.00000 0 -3415539.906 -11923582.848 22309755.833 10 0 60977 66600.00000 0 -1836547.772 -14092464.166 21200323.922 10 0 60977 67500.00000 0 -513444.006 -16239143.697 19679886.032 10 0 60977 68400.00000 0 541107.466 -18296591.681 17777766.993 10 0 60977 69300.00000 0 1327263.080 -20198261.023 15530709.065 10 0 60977 70200.00000 0 1857762.678 -21880766.584 12982175.209 10 0 60977 71100.00000 0 2157158.528 -23286454.939 10181519.917 10 0 60977 72000.00000 0 2260542.270 -24365757.144 7183042.356 10 0 60977 72900.00000 0 2211823.083 -25079225.409 4044939.197 10 0 60977 73800.00000 0 2061629.453 -25399167.282 828176.833 10 0 60977 74700.00000 0 1864923.318 -25310807.303 -2404695.188 10 0 60977 75600.00000 0 1678427.953 -24812925.823 -5590766.126 10 0 60977 76500.00000 0 1557979.387 -23917946.587 -8667996.899 10 0 60977 77400.00000 0 1555914.802 -22651468.076 -11576438.751 10 0 60977 78300.00000 0 1718610.132 -21051257.352 -14259412.749 10 0 60977 79200.00000 0 2084272.926 -19165748.107 -16664625.923 10 0 60977 80100.00000 0 2681085.743 -17052105.905 -18745201.018 10 0 60977 81000.00000 0 3525780.383 -14773942.055 -20460598.854 10 0 60977 81900.00000 0 4622704.800 -12398772.537 -21777414.581 10 0 60977 82800.00000 0 5963423.403 -9995329.094 -22670031.877 10 0 60977 83700.00000 0 7526868.632 -7630835.719 -23121122.232 10 0 60977 84600.00000 0 9280038.139 -5368364.867 -23121979.745 10 0 60977 85500.00000 0 11179208.672 -3264384.134 -22672685.250 99